Date String (YYYY-MM-DD hh:mm:ss) UTC,Instrument flags,absolute air pressure of the measurement (hPa),sample flow rate (lpm),inlet stack bypass flow (lpm),air temperature of the measurement (°C),ambient temperature measured by the external sensor (°C),aerosol sample conditioner tube jacket temperature (°C),OPC LED temperature (°C),internal box temperature (°C),relative humidity of the measurement (%),span deviation,mass concentration of particles derived from Lorenz-Mie calculation of OPC scattering (μg/m³),mass concentration of particles derived from Lorenz-Mie calculation of OPC scattering (μg/m³),mass concentration of particles derived from Lorenz-Mie calculation of OPC scattering (μg/m³)
DateTimeUTC,F1_M11,P_M11,Q1_M11,Q2_M11,T1_M11,T2_M11,T3_M11,T4_M11,T5_M11,U1_M11,ZSPAN_M11,X0_M11,X2_M11,X1_M11
2023-07-09 19:00:00,SystemResetWarning,0832.5,5.01,000.00,029.8,027.3,000.0,038.1,030.8,31.1,0000.0,0013.80,0005.66,0005.18
2023-07-09 19:01:00,SystemResetWarning,0832.5,5.01,000.00,029.8,027.6,000.0,038.1,030.9,29.8,0000.0,0013.67,0005.64,0005.17
2023-07-09 19:02:00,SystemResetWarning,0832.4,5.00,000.00,029.8,027.7,000.0,038.1,031.0,29.0,0000.0,0013.20,0005.62,0005.17
2023-07-09 19:03:00,SystemResetWarning,0832.3,4.99,000.00,029.8,026.6,000.0,038.0,030.9,30.4,0000.0,0012.71,0005.65,0005.19
2023-07-09 19:04:00,SystemResetWarning,0832.3,4.99,000.00,029.8,025.3,000.0,037.9,030.6,30.9,0000.0,0012.77,0005.64,0005.16
2023-07-09 19:05:00,SystemResetWarning,0832.3,5.01,000.00,029.7,025.0,000.0,037.8,030.4,30.2,-001.4,0012.35,0005.67,0005.17
2023-07-09 19:06:00,SystemResetWarning,0832.3,5.01,000.00,029.5,025.3,000.0,037.8,030.3,31.2,-001.4,0011.84,0005.67,0005.17
2023-07-09 19:07:00,SystemResetWarning,0832.3,4.99,000.00,029.5,025.7,000.0,037.8,030.3,29.4,-000.7,0010.91,0005.64,0005.15
2023-07-09 19:08:00,SystemResetWarning,0832.3,5.00,000.00,029.4,026.1,000.0,037.8,030.4,29.4,-000.6,0010.92,0005.64,0005.14
2023-07-09 19:09:00,SystemResetWarning,0832.3,5.00,000.00,029.4,026.6,000.0,037.9,030.5,30.0,-000.2,0010.54,0005.63,0005.11
2023-07-09 19:10:00,SystemResetWarning,0832.3,5.00,000.00,029.5,026.9,000.0,037.9,030.6,29.9,0000.0,0009.82,0005.59,0005.08
2023-07-09 19:11:00,SystemResetWarning,0832.3,5.00,000.00,029.5,027.2,000.0,037.9,030.7,29.3,-000.1,0010.01,0005.58,0005.07
2023-07-09 19:12:00,SystemResetWarning,0832.2,4.99,000.00,029.5,027.5,000.0,037.9,030.8,29.0,-000.2,0010.26,0005.60,0005.08
2023-07-09 19:13:00,SystemResetWarning,0832.2,4.99,000.00,029.5,027.7,000.0,037.9,030.9,28.7,0000.0,0010.19,0005.58,0005.06
2023-07-09 19:14:00,SystemResetWarning,0832.2,5.00,000.00,029.6,026.9,000.0,037.8,030.8,30.6,0000.0,0010.12,0005.53,0005.04
2023-07-09 19:15:00,SystemResetWarning,0832.2,5.00,000.00,029.5,025.4,000.0,037.7,030.5,30.2,0000.0,0010.03,0005.48,0005.01
2023-07-09 19:16:00,SystemResetWarning,0832.2,5.01,000.00,029.4,024.9,000.0,037.6,030.4,30.5,0000.0,0009.92,0005.43,0004.97
2023-07-09 19:17:00,SystemResetWarning,0832.2,5.00,000.00,029.3,025.1,000.0,037.6,030.2,30.7,0000.0,0009.85,0005.37,0004.93
2023-07-09 19:18:00,SystemResetWarning,0832.2,5.01,000.00,029.2,025.5,000.0,037.6,030.2,30.3,0000.0,0009.88,0005.33,0004.90
2023-07-09 19:19:00,SystemResetWarning,0832.2,5.00,000.00,029.2,026.0,000.0,037.6,030.3,30.4,0000.0,0009.64,0005.33,0004.89
2023-07-09 19:20:00,SystemResetWarning,0832.3,5.00,000.00,029.2,026.4,000.0,037.6,030.4,31.0,0000.0,0009.11,0005.34,0004.89
2023-07-09 19:21:00,SystemResetWarning,0832.3,4.98,000.00,029.2,026.8,000.0,037.6,030.5,30.7,0000.0,0009.50,0005.36,0004.89
2023-07-09 19:22:00,SystemResetWarning,0832.3,5.00,000.00,029.2,027.1,000.0,037.6,030.6,31.2,0000.0,0009.23,0005.32,0004.88
2023-07-09 19:23:00,SystemResetWarning,0832.3,5.01,000.00,029.3,027.4,000.0,037.7,030.7,31.6,0000.0,0008.84,0005.27,0004.86
2023-07-09 19:24:00,SystemResetWarning,0832.3,5.00,000.00,029.3,027.6,000.0,037.7,030.8,31.0,-000.0,0008.79,0005.24,0004.83
2023-07-09 19:25:00,SystemResetWarning,0832.3,4.98,000.00,029.3,027.7,000.0,037.7,030.8,30.9,-000.4,0008.76,0005.22,0004.82
2023-07-09 19:26:00,SystemResetWarning,0832.2,5.00,000.00,029.3,026.5,000.0,037.6,030.6,31.5,-000.5,0008.67,0005.20,0004.80
2023-07-09 19:27:00,SystemResetWarning,0832.2,5.00,000.00,029.3,025.2,000.0,037.5,030.5,31.9,-000.3,0008.64,0005.19,0004.79
2023-07-09 19:28:00,SystemResetWarning,0832.2,5.01,000.00,029.2,024.9,000.0,037.4,030.3,32.3,0000.0,0008.72,0005.19,0004.79
2023-07-09 19:29:00,SystemResetWarning,0832.2,5.02,000.00,029.1,025.2,000.0,037.4,030.1,32.0,0000.0,0009.41,0005.19,0004.81
2023-07-09 19:30:00,SystemResetWarning,0832.2,4.99,000.00,029.0,025.6,000.0,037.4,030.2,32.3,0000.0,0009.34,0005.19,0004.83
2023-07-09 19:31:00,SystemResetWarning,0832.2,5.00,000.00,029.0,026.1,000.0,037.5,030.3,33.2,0000.0,0009.14,0005.18,0004.85
2023-07-09 19:32:00,SystemResetWarning,0832.2,5.01,000.00,029.1,026.5,000.0,037.5,030.4,34.6,0000.0,0008.91,0005.21,0004.87
2023-07-09 19:33:00,SystemResetWarning,0832.3,5.00,000.00,029.1,026.9,000.0,037.5,030.5,33.9,0000.0,0008.87,0005.28,0004.92
2023-07-09 19:34:00,SystemResetWarning,0832.3,4.99,000.00,029.2,027.2,000.0,037.5,030.6,33.0,-000.1,0008.97,0005.36,0004.99
2023-07-09 19:35:00,SystemResetWarning,0832.3,5.02,000.00,029.2,027.5,000.0,037.5,030.7,32.9,0000.0,0009.03,0005.41,0005.05
2023-07-09 19:36:00,SystemResetWarning,0832.3,4.99,000.00,029.3,027.7,000.0,037.5,030.8,32.7,0000.0,0009.10,0005.47,0005.10
2023-07-09 19:37:00,SystemResetWarning,0832.3,4.99,000.00,029.3,026.7,000.0,037.5,030.7,32.6,0000.0,0009.21,0005.53,0005.16
2023-07-09 19:38:00,SystemResetWarning,0832.3,5.00,000.00,029.3,025.3,000.0,037.4,030.5,33.2,0000.0,0009.32,0005.62,0005.23
2023-07-09 19:39:00,SystemResetWarning,0832.3,5.02,000.00,029.2,024.8,000.0,037.3,030.4,32.7,0000.0,0009.39,0005.71,0005.28
2023-07-09 19:40:00,SystemResetWarning,0832.3,5.01,000.00,029.1,025.1,000.0,037.3,030.1,33.2,-001.0,0008.87,0005.76,0005.33
2023-07-09 19:41:00,SystemResetWarning,0832.4,5.00,000.00,029.0,025.5,000.0,037.4,030.2,33.5,-001.8,0009.48,0005.86,0005.38
2023-07-09 19:42:00,SystemResetWarning,0832.4,4.99,000.00,029.0,026.0,000.0,037.4,030.2,34.7,-001.6,0010.45,0005.93,0005.43
2023-07-09 19:43:00,SystemResetWarning,0832.5,5.02,000.00,029.1,026.4,000.0,037.4,030.4,34.0,-001.6,0010.50,0005.98,0005.49
2023-07-09 19:44:00,SystemResetWarning,0832.5,4.99,000.00,029.2,026.8,000.0,037.4,030.5,33.4,-002.0,0010.45,0005.98,0005.49
2023-07-09 19:45:00,SystemResetWarning,0832.6,5.00,000.00,029.2,027.2,000.0,037.5,030.6,33.1,-002.8,0010.62,0005.98,0005.49
2023-07-09 19:46:00,SystemResetWarning,0832.5,5.00,000.00,029.3,027.4,000.0,037.5,030.6,33.0,-002.9,0010.90,0006.03,0005.49
2023-07-09 19:47:00,SystemResetWarning,0832.5,4.99,000.00,029.3,027.7,000.0,037.5,030.7,33.5,-001.9,0011.32,0006.05,0005.50
2023-07-09 19:48:00,SystemResetWarning,0832.5,5.00,000.00,029.3,027.7,000.0,037.5,030.8,33.5,-002.2,0011.55,0006.05,0005.50
2023-07-09 19:49:00,SystemResetWarning,0832.5,5.00,000.00,029.4,026.4,000.0,037.4,030.6,32.6,-002.4,0011.53,0006.03,0005.49
2023-07-09 19:50:00,SystemResetWarning,0832.4,5.00,000.00,029.3,025.1,000.0,037.3,030.5,32.6,-002.0,0012.20,0006.00,0005.48
2023-07-09 19:51:00,SystemResetWarning,0832.3,5.01,000.00,029.2,024.9,000.0,037.3,030.3,32.8,0000.0,0012.08,0006.01,0005.48
2023-07-09 19:52:00,SystemResetWarning,0832.3,4.99,000.00,029.1,025.2,000.0,037.3,030.2,34.0,-000.4,0011.65,0005.99,0005.47
2023-07-09 19:53:00,SystemResetWarning,0832.2,4.99,000.00,029.1,025.7,000.0,037.4,030.2,33.6,0000.0,0011.22,0005.96,0005.45
2023-07-09 19:54:00,SystemResetWarning,0832.2,4.99,000.00,029.1,026.1,000.0,037.4,030.3,32.8,0000.0,0011.30,0005.91,0005.41
2023-07-09 19:55:00,SystemResetWarning,0832.2,5.01,000.00,029.1,026.6,000.0,037.4,030.4,32.5,-000.5,0011.28,0005.90,0005.40
2023-07-09 19:56:00,SystemResetWarning,0832.1,5.01,000.00,029.1,026.9,000.0,037.5,030.5,32.3,-000.2,0011.17,0005.91,0005.39
2023-07-09 19:57:00,SystemResetWarning,0832.1,4.98,000.00,029.1,027.2,000.0,037.5,030.6,32.8,0000.0,0011.52,0005.87,0005.38
2023-07-09 19:58:00,SystemResetWarning,0832.0,5.00,000.00,029.2,027.5,000.0,037.5,030.7,32.4,-000.4,0011.41,0005.86,0005.37
2023-07-09 19:59:00,SystemResetWarning,0832.0,5.01,000.00,029.2,027.7,000.0,037.5,030.7,32.5,-001.4,0010.96,0005.86,0005.38
